STARLINK-34361, 64450

Orbit data source: Space-Track

STARLINK-34361, 64450 is a payload satellite owned by SpaceX/Seattle (US) in LEO that was launched on Wed, 18 Jun 2025 UTC via an FALCON 9 launch vehicle from the Air Force Eastern Test Range (AFETR). Payload-class satellites include a variety of spacecraft equipped with specific instruments for various scientific and technological missions. These include communications satellites like Starlink; space stations such as the ISS; scientific satellites like the Hubble; Earth observation satellites from companies like Planet Labs, Umbra, and HawkEye 360; GPS; miniature CubeSats for education and research; and military/defense satellites.

Loading next visibility...
Identifier
64450, 2025-130N
Orbit
LEO
Country
Flag of USUS
Related business
Manufacturer
SpaceX/Seattle
Mission
Operational Commercial Communications
Bus & Motor
STARLINK V2MO, Unknown motor
Mass
575 kg wet, ~530 kg dry
Launch date (UTC)
2025-06-18 (1 year ago)
Launch vehicle
FALCON 9
Launch site
Air Force Eastern Test Range (AFETR)
Object type
Payload
Rocket body
Debris
Shape & HBR
Box + 2 Pan, 17.7 m
Radar Cross Section
36.964 m², Large (>1 m²)

Expand to show TLE details & history
Last TLE update: 1 day ago

TLE from 1 day ago
0 STARLINK-34361
1 64450U 25130N   26170.72755044  .00026087  00000-0  78029-3 0  9992
2 64450  53.1599 333.2978 0000987  51.5286 308.5805 15.34409566 57519
Epoch: 2026-06-19T17:27Z
TLE epoch observation values (Epoch: 2026-06-19T17:27:40.358Z)
Latitude
Longitude
163.42727°
Altitude
463.155 km
Speed
7.636 km/s
True Right ascension
22h 13m 11s
True Declination
0° 00' 00"
Sunlit
Object was in full shadow at epoch
Visualization orbit readout
Latitude
Unknown
Longitude
Unknown
Altitude
Unknown
Speed
Unknown
Apparent Right ascension
Unknown
Apparent Declination
Unknown
Sunlit
N/A
Visualization observer readout
Local Sidereal Time
07:15:52
Azimuth
Unknown
Elevation
Unknown
Doppler factor
Unknown
Orbital elements
Apogee altitude
463.607 km
Perigee altitude
462.256 km
Semi-major axis
6,841.069 km
Eccentricity
0.0001
Inclination
53.1599°
RAAN
333.2978°
Arg. of periapsis
51.5286°
True anomaly
308.57166°
Mean anomaly
308.5805°
Eccentric anomaly
308.57608°
Mean motion
3.83581 °/min
Orbital period
93.85 mins
BSTAR
0.00078029
Loading maneuver chart data...
Computing Atmospheric mass density...
Loading historical data...
Loading historical data...
Loading historical data...
Loading historical data...
Loading historical data...
Loading historical data...
Loading historical data...

Documentation

Showing up to 5 results
|